Starlink 2006

decayed
NORAD ID: 47601 Int'l Des: 2021-009 Owner: SPXS Country: US Constellation: starlink
LEOCIRCULAR

关于 Starlink 2006

正在加载描述...

高度历史

Altitude vs Time

uPlot chart will show altitude changes over time

两行轨道根数

1 47601U 21009BF 25052.97393356 .10262300 12401-4 67623-3 0 9992
2 47601 53.0335 230.0642 0006485 279.7789 223.3470 16.40749226224862
Epoch: Feb 21, 2025 • Age: 7157 hours

当前状态

Position data unavailable
发射日期 Feb 4, 2021
运行时间 4.8 years
衰减日期 Feb 22, 2025
类型 internet

技术详情

分类 Payload
质量 260.00 kg
干质量 248.00 kg
总质量 260.00 kg
长度 0.20 m
直径 2.80 m
跨度 9.00 m
形状 Box + pan
制造商 SPXS
平台类型 Starlink
阶段状态 Unknown Transfer Status
所有者/国家 SPXS/US

大型星座

Loading constellations...